Airport Information

KEUG - Mahlon Sweet Fld Airport

KEUG 202254Z 20013KT 10SM SCT032 BKN045 BKN240 12/08 A3000 RMK AO2 SLP161 T01220078


  • General Information

  • Coordinates: N 44°7'28"/ W 123°12'43"
  • Location: N/A
  • Surveyed Elevation: 374 MSL

Operations

Flow Name Active Runways Conditions
North Flow Landing: 34L/34R
Departing: 34L/34R
Wind Direction: 251-069°
Wind Speed: >10
South Flow Landing: 16L/16R
Departing: 16L/16R
Wind Direction: 070-250°
Wind Speed: ≤10 or CALM

Green background denotes normal operations.


Common Frequencies

Callsign Frequency Position Name
EUG_GND 121.700 Eugene Ground
EUG_TWR 118.900 Eugene Tower
EUG_APP 119.600 Eugene Approach
KEUG_ATIS 125.225 Eugene ATIS

More at the Document Center


Charts

Under Construction